This is the latest recevied weather packets stored in our database for station/object F8BMG-Wx. If no packets are shown the sender has not sent any weather packets the latest 10 day(s).
| Time | Temp. | Humidity | Pressure | Rain* | Wind** | Luminosity | Snow |
|---|---|---|---|---|---|---|---|
| 1777919861 | 14.44° C | 99% | 1012.6 hPa | 0 mm | - | - | - |
| 1777919557 | 14.44° C | 99% | 1012.7 hPa | 0.51 mm | - | - | - |
| 1777919253 | 14.44° C | 99% | 1012.7 hPa | 0.51 mm | - | - | - |
| 1777918949 | 14.44° C | 99% | 1012.8 hPa | 0.51 mm | - | - | - |
| 1777918646 | 14.44° C | 99% | 1012.8 hPa | 0.51 mm | - | - | - |
| 1777918348 | 14.44° C | 99% | 1012.9 hPa | 0.51 mm | - | - | - |
| 1777918036 | 14.44° C | 99% | 1013 hPa | 0.51 mm | - | - | - |
| 1777917733 | 14.44° C | 99% | 1013 hPa | 0.51 mm | - | - | - |
| 1777917429 | 14.44° C | 99% | 1013 hPa | 0.51 mm | - | - | - |
| 1777917126 | 14.44° C | 99% | 1012.8 hPa | 0.51 mm | - | - | - |
| 1777916822 | 14.44° C | 99% | 1012.7 hPa | 0.51 mm | - | - | - |
| 1777916525 | 14.44° C | 99% | 1012.7 hPa | 0.25 mm | - | - | - |
| 1777916212 | 14.44° C | 99% | 1012.8 hPa | 6.35 mm | - | - | - |
| 1777915908 | 14.44° C | 99% | 1012.7 hPa | 6.35 mm | - | - | - |
| 1777915605 | 14.44° C | 99% | 1012.6 hPa | 6.1 mm | - | - | - |
| 1777915301 | 14.44° C | 99% | 1012.5 hPa | 5.84 mm | - | - | - |
| 1777914998 | 14.44° C | 99% | 1012.5 hPa | 5.08 mm | - | - | - |
| 1777914700 | 14.44° C | 99% | 1012.5 hPa | 4.57 mm | - | - | - |
| 1777914388 | 15° C | 99% | 1012.5 hPa | 4.32 mm | - | - | - |
| 1777914084 | 15° C | 99% | 1012.4 hPa | 4.06 mm | - | - | - |
| 1777913781 | 15° C | 99% | 1012.3 hPa | 3.56 mm | - | - | - |
| 1777913477 | 15.56° C | 99% | 1012.2 hPa | 1.52 mm | - | - | - |
| 1777913173 | 15.56° C | 99% | 1012 hPa | 0.51 mm | - | - | - |
| 1777912876 | 15.56° C | 99% | 1012 hPa | 0.25 mm | - | - | - |
| 1777912563 | 15.56° C | 99% | 1012.1 hPa | 0.25 mm | - | - | - |
* Rain latest hour (hover to see other rain measurements)
** Current wind speed in m/s (hover to see current wind gust speed)